Location: Cheyres
(46.8153°N, 6.7877°E)
Time: 14:11:04
(UTC+00:00)

NANOSAT C BR1 - Pass Details

Date: 27 June 2022
Orbit: 584 x 599 km, 98.0° (Epoch: 07 August)

Event Time Altitude Azimuth Distance (km) Brightness Sun altitude
Rises 00:36:19 0° 29° (NNE) 2,845 ? -18.5°
Reaches altitude 10° 00:39:10 10° 50° (NE) 1,940 ? -18.4°
Maximum altitude 00:41:55 17° 91° (E) 1,541 ? -18.3°
Enters shadow 00:44:28 11° 130° (SE) 1,888 ? -18.2°
